| time (UTC) | temp F | wind direction | speed MPH | gust MPH | rain 1hr in | rain 24hr in | rain mn in | humidity % | barometer mb |
| 20260903174235 | 94 | 304 | 3.0 | 5.0 | 0.00 | 0.00 | 0.00 | 46 | 1016.0 |
| 20260903173735 | 94 | 299 | 2.0 | 5.0 | 0.00 | 0.00 | 0.00 | 47 | 1016.0 |
| 20260903173235 | 94 | 278 | 4.0 | 6.0 | 0.00 | 0.00 | 0.00 | 47 | 1016.0 |
| 20260903172736 | 94 | 256 | 3.0 | 5.0 | 0.00 | 0.00 | 0.00 | 46 | 1016.0 |
| 20260903172235 | 94 | 254 | 5.0 | 7.0 | 0.00 | 0.00 | 0.00 | 46 | 1016.0 |
| 20260903171738 | 93 | 277 | 4.0 | 8.0 | 0.00 | 0.00 | 0.00 | 47 | 1016.0 |
| 20260903171235 | 93 | 295 | 3.0 | 6.0 | 0.00 | 0.00 | 0.00 | 47 | 1016.0 |
| 20260903170737 | 93 | 262 | 3.0 | 8.0 | 0.00 | 0.00 | 0.00 | 47 | 1016.0 |
| 20260903170235 | 93 | 230 | 3.0 | 6.0 | 0.00 | 0.00 | 0.00 | 47 | 1016.0 |
| 20260903165735 | 93 | 274 | 3.0 | 6.0 | 0.00 | 0.00 | 0.00 | 46 | 1016.0 |
| 20260903165235 | 93 | 261 | 3.0 | 6.0 | 0.00 | 0.00 | 0.00 | 47 | 1016.0 |
| 20260903164736 | 93 | 232 | 6.0 | 7.0 | 0.00 | 0.00 | 0.00 | 46 | 1016.0 |
| 20260903164235 | 93 | 269 | 5.0 | 8.0 | 0.00 | 0.00 | 0.00 | 46 | 1016.0 |
| 20260903163735 | 93 | 275 | 2.0 | 3.0 | 0.00 | 0.00 | 0.00 | 47 | 1016.0 |
| 20260903163235 | 93 | 248 | 3.0 | 6.0 | 0.00 | 0.00 | 0.00 | 47 | 1016.0 |
| 20260903162737 | 93 | 234 | 4.0 | 6.0 | 0.00 | 0.00 | 0.00 | 46 | 1016.0 |
| 20260903162235 | 92 | 271 | 4.0 | 6.0 | 0.00 | 0.00 | 0.00 | 49 | 1016.0 |
| 20260903161735 | 92 | 272 | 4.0 | 7.0 | 0.00 | 0.00 | 0.00 | 50 | 1017.0 |
| 20260903161235 | 92 | 249 | 4.0 | 5.0 | 0.00 | 0.00 | 0.00 | 50 | 1016.0 |
| 20260903160737 | 92 | 249 | 3.0 | 3.0 | 0.00 | 0.00 | 0.00 | 50 | 1016.0 |
| 20260903160236 | 91 | 259 | 3.0 | 7.0 | 0.00 | 0.00 | 0.00 | 51 | 1017.0 |
| 20260903155736 | 91 | 237 | 3.0 | 5.0 | 0.00 | 0.00 | 0.00 | 53 | 1017.0 |
| 20260903155235 | 91 | 280 | 6.0 | 6.0 | 0.00 | 0.00 | 0.00 | 52 | 1017.0 |
| 20260903154735 | 90 | 254 | 4.0 | 5.0 | 0.00 | 0.00 | 0.00 | 53 | 1016.0 |
| 20260903154236 | 91 | 251 | 3.0 | 10.0 | 0.00 | 0.00 | 0.00 | 53 | 1017.0 |
| 20260903153736 | 90 | 240 | 3.0 | 6.0 | 0.00 | 0.00 | 0.00 | 54 | 1017.0 |
| 20260903153236 | 90 | 286 | 2.0 | 5.0 | 0.00 | 0.00 | 0.00 | 55 | 1016.0 |
| 20260903152742 | 90 | 245 | 4.0 | 7.0 | 0.00 | 0.00 | 0.00 | 55 | 1017.0 |
| 20260903152236 | 89 | 256 | 3.0 | 5.0 | 0.00 | 0.00 | 0.00 | 55 | 1017.0 |
| 20260903151736 | 89 | 267 | 4.0 | 7.0 | 0.00 | 0.00 | 0.00 | 56 | 1017.0 |
| 20260903151240 | 88 | 252 | 3.0 | 6.0 | 0.00 | 0.00 | 0.00 | 56 | 1017.0 |
| 20260903150737 | 88 | 243 | 2.0 | 4.0 | 0.00 | 0.00 | 0.00 | 56 | 1017.0 |
| 20260903150237 | 88 | 239 | 2.0 | 6.0 | 0.00 | 0.00 | 0.00 | 57 | 1017.0 |
| 20260903145736 | 88 | 240 | 3.0 | 6.0 | 0.00 | 0.00 | 0.00 | 57 | 1016.0 |
| 20260903145235 | 88 | 253 | 2.0 | 4.0 | 0.00 | 0.00 | 0.00 | 57 | 1017.0 |
| 20260903144737 | 89 | 275 | 3.0 | 5.0 | 0.00 | 0.00 | 0.00 | 57 | 1017.0 |
| 20260903144236 | 88 | 219 | 3.0 | 6.0 | 0.00 | 0.00 | 0.00 | 58 | 1017.0 |
| 20260903143736 | 88 | 287 | 7.0 | 8.0 | 0.00 | 0.00 | 0.00 | 58 | 1017.0 |
| 20260903143235 | 87 | 233 | 4.0 | 6.0 | 0.00 | 0.00 | 0.00 | 59 | 1017.0 |
| 20260903142738 | 87 | 240 | 5.0 | 5.0 | 0.00 | 0.00 | 0.00 | 59 | 1016.0 |
| 20260903142235 | 87 | 256 | 3.0 | 5.0 | 0.00 | 0.00 | 0.00 | 59 | 1016.0 |
| 20260903141737 | 86 | 230 | 6.0 | 6.0 | 0.00 | 0.00 | 0.00 | 60 | 1017.0 |
| 20260903141235 | 86 | 235 | 3.0 | 5.0 | 0.00 | 0.00 | 0.00 | 60 | 1017.0 |
| 20260903140736 | 86 | 234 | 3.0 | 4.0 | 0.00 | 0.00 | 0.00 | 61 | 1017.0 |
| 20260903140235 | 87 | 255 | 3.0 | 4.0 | 0.00 | 0.00 | 0.00 | 61 | 1017.0 |
| 20260903135735 | 87 | 257 | 3.0 | 4.0 | 0.00 | 0.00 | 0.00 | 61 | 1017.0 |
| 20260903135236 | 87 | 247 | 3.0 | 3.0 | 0.00 | 0.00 | 0.00 | 61 | 1017.0 |
| 20260903134735 | 87 | 250 | 2.0 | 3.0 | 0.00 | 0.00 | 0.00 | 62 | 1017.0 |
| 20260903134236 | 87 | 255 | 1.0 | 2.0 | 0.00 | 0.00 | 0.00 | 63 | 1017.0 |
| 20260903133736 | 87 | 235 | 2.0 | 3.0 | 0.00 | 0.00 | 0.00 | 63 | 1017.0 |
| 20260903133237 | 86 | 256 | 2.0 | 3.0 | 0.00 | 0.00 | 0.00 | 61 | 1017.0 |
| 20260903132735 | 86 | 206 | 0.0 | 2.0 | 0.00 | 0.00 | 0.00 | 62 | 1017.0 |
| 20260903132235 | 85 | 236 | 2.0 | 3.0 | 0.00 | 0.00 | 0.00 | 64 | 1017.0 |
| 20260903131735 | 85 | 237 | 1.0 | 3.0 | 0.00 | 0.00 | 0.00 | 65 | 1017.0 |
| 20260903131235 | 84 | 186 | 1.0 | 2.0 | 0.00 | 0.00 | 0.00 | 66 | 1016.0 |
| 20260903130737 | 83 | 197 | 0.0 | 2.0 | 0.00 | 0.00 | 0.00 | 66 | 1017.0 |
| 20260903130235 | 83 | 226 | 2.0 | 2.0 | 0.00 | 0.00 | 0.00 | 67 | 1017.0 |
| 20260903125735 | 82 | 226 | 2.0 | 2.0 | 0.00 | 0.00 | 0.00 | 69 | 1017.0 |
| 20260903125236 | 81 | 249 | 2.0 | 3.0 | 0.00 | 0.00 | 0.00 | 71 | 1017.0 |
| 20260903124736 | 80 | 215 | 1.0 | 2.0 | 0.00 | 0.00 | 0.00 | 72 | 1017.0 |
| 20260903124235 | 80 | 197 | 2.0 | 2.0 | 0.00 | 0.00 | 0.00 | 73 | 1017.0 |
| 20260903123735 | 79 | 197 | 1.0 | 2.0 | 0.00 | 0.00 | 0.00 | 73 | 1017.0 |
| 20260903123237 | 79 | 212 | 1.0 | 2.0 | 0.00 | 0.00 | 0.00 | 74 | 1017.0 |
| 20260903122736 | 78 | 233 | 1.0 | 2.0 | 0.00 | 0.00 | 0.00 | 74 | 1017.0 |
| 20260903122235 | 78 | 224 | 1.0 | 2.0 | 0.00 | 0.00 | 0.00 | 75 | 1016.0 |
| 20260903121735 | 78 | 248 | 2.0 | 2.0 | 0.00 | 0.00 | 0.00 | 75 | 1016.0 |
| 20260903121236 | 78 | 248 | 1.0 | 2.0 | 0.00 | 0.00 | 0.00 | 75 | 1016.0 |
| 20260903120738 | 78 | 226 | 1.0 | 2.0 | 0.00 | 0.00 | 0.00 | 75 | 1017.0 |
| 20260903120238 | 78 | 205 | 1.0 | 2.0 | 0.00 | 0.00 | 0.00 | 75 | 1016.0 |
| 20260903115735 | 78 | 204 | 1.0 | 2.0 | 0.00 | 0.00 | 0.00 | 75 | 1016.0 |
| 20260903115236 | 78 | 203 | 1.0 | 2.0 | 0.00 | 0.00 | 0.00 | 74 | 1016.0 |
| 20260903114735 | 78 | 211 | 1.0 | 2.0 | 0.00 | 0.00 | 0.00 | 74 | 1016.0 |
| 20260903114235 | 78 | 239 | 1.0 | 2.0 | 0.00 | 0.00 | 0.00 | 74 | 1016.0 |
| 20260903113735 | 78 | 253 | 1.0 | 2.0 | 0.00 | 0.00 | 0.00 | 74 | 1016.0 |
| 20260903113235 | 78 | 250 | 1.0 | 2.0 | 0.00 | 0.00 | 0.00 | 74 | 1016.0 |
| 20260903112735 | 78 | 234 | 1.0 | 2.0 | 0.00 | 0.00 | 0.00 | 74 | 1016.0 |
| 20260903112236 | 78 | 253 | 1.0 | 2.0 | 0.00 | 0.00 | 0.00 | 74 | 1016.0 |
| 20260903111735 | 79 | 250 | 0.0 | 1.0 | 0.00 | 0.00 | 0.00 | 73 | 1016.0 |
| 20260903111235 | 79 | 247 | 1.0 | 2.0 | 0.00 | 0.00 | 0.00 | 73 | 1016.0 |
| 20260903110737 | 79 | 225 | 1.0 | 2.0 | 0.00 | 0.00 | 0.00 | 73 | 1016.0 |
| 20260903110235 | 79 | 215 | 1.0 | 2.0 | 0.00 | 0.00 | 0.00 | 73 | 1016.0 |
| 20260903105735 | 79 | 240 | 1.0 | 2.0 | 0.00 | 0.00 | 0.00 | 73 | 1016.0 |
| 20260903105236 | 79 | 215 | 2.0 | 2.0 | 0.00 | 0.00 | 0.00 | 73 | 1016.0 |
| 20260903104735 | 79 | 225 | 1.0 | 2.0 | 0.00 | 0.00 | 0.00 | 72 | 1016.0 |
| 20260903104236 | 79 | 247 | 1.0 | 2.0 | 0.00 | 0.00 | 0.00 | 72 | 1016.0 |
| 20260903103735 | 79 | 243 | 1.0 | 2.0 | 0.00 | 0.00 | 0.00 | 72 | 1016.0 |
| 20260903103235 | 79 | 211 | 1.0 | 2.0 | 0.00 | 0.00 | 0.00 | 72 | 1016.0 |
| 20260903102737 | 79 | 240 | 1.0 | 2.0 | 0.00 | 0.00 | 0.00 | 72 | 1016.0 |
| 20260903102235 | 79 | 234 | 1.0 | 2.0 | 0.00 | 0.00 | 0.00 | 72 | 1016.0 |
| 20260903101736 | 79 | 239 | 1.0 | 2.0 | 0.00 | 0.00 | 0.00 | 72 | 1016.0 |
| 20260903101236 | 79 | 188 | 1.0 | 2.0 | 0.00 | 0.00 | 0.00 | 71 | 1016.0 |
| 20260903100736 | 80 | 221 | 2.0 | 2.0 | 0.00 | 0.00 | 0.00 | 71 | 1016.0 |
| 20260903100235 | 80 | 221 | 1.0 | 2.0 | 0.00 | 0.00 | 0.00 | 70 | 1016.0 |
| 20260903095735 | 80 | 212 | 1.0 | 2.0 | 0.00 | 0.00 | 0.00 | 70 | 1016.0 |
| 20260903095236 | 80 | 237 | 1.0 | 2.0 | 0.00 | 0.00 | 0.00 | 70 | 1016.0 |
| 20260903094735 | 80 | 214 | 1.0 | 2.0 | 0.00 | 0.00 | 0.00 | 70 | 1016.0 |
| 20260903094236 | 80 | 220 | 0.0 | 2.0 | 0.00 | 0.00 | 0.00 | 70 | 1016.0 |
| 20260903093735 | 80 | 238 | 1.0 | 2.0 | 0.00 | 0.00 | 0.00 | 69 | 1016.0 |
| 20260903093236 | 80 | 224 | 2.0 | 2.0 | 0.00 | 0.00 | 0.00 | 69 | 1016.0 |
| 20260903092736 | 80 | 224 | 2.0 | 2.0 | 0.00 | 0.00 | 0.00 | 69 | 1016.0 |
| 20260903092236 | 80 | 231 | 2.0 | 2.0 | 0.00 | 0.00 | 0.00 | 69 | 1016.0 |
| 20260903091735 | 80 | 232 | 1.0 | 2.0 | 0.00 | 0.00 | 0.00 | 69 | 1016.0 |
| 20260903091236 | 80 | 208 | 2.0 | 2.0 | 0.00 | 0.00 | 0.00 | 69 | 1016.0 |
| 20260903090736 | 81 | 208 | 1.0 | 2.0 | 0.00 | 0.00 | 0.00 | 69 | 1016.0 |
| 20260903090235 | 81 | 217 | 1.0 | 2.0 | 0.00 | 0.00 | 0.00 | 68 | 1016.0 |
| 20260903085736 | 80 | 216 | 2.0 | 2.0 | 0.00 | 0.00 | 0.00 | 68 | 1016.0 |
| 20260903085235 | 80 | 235 | 2.0 | 2.0 | 0.00 | 0.00 | 0.00 | 68 | 1016.0 |
| 20260903084735 | 80 | 255 | 0.0 | 2.0 | 0.00 | 0.00 | 0.00 | 69 | 1015.0 |
| 20260903084237 | 80 | 240 | 1.0 | 2.0 | 0.00 | 0.00 | 0.00 | 69 | 1015.0 |
| 20260903083735 | 81 | 234 | 2.0 | 2.0 | 0.00 | 0.00 | 0.00 | 69 | 1016.0 |
| 20260903083238 | 81 | 249 | 1.0 | 2.0 | 0.00 | 0.00 | 0.00 | 70 | 1016.0 |
| 20260903082735 | 81 | 252 | 1.0 | 2.0 | 0.00 | 0.00 | 0.00 | 68 | 1016.0 |
| 20260903082236 | 81 | 187 | 0.0 | 2.0 | 0.00 | 0.00 | 0.00 | 68 | 1015.0 |
| 20260903081735 | 81 | 197 | 2.0 | 2.0 | 0.00 | 0.00 | 0.00 | 68 | 1016.0 |
| 20260903081236 | 81 | 199 | 1.0 | 2.0 | 0.00 | 0.00 | 0.00 | 68 | 1016.0 |
| 20260903080736 | 81 | 248 | 1.0 | 2.0 | 0.00 | 0.00 | 0.00 | 69 | 1015.0 |
| 20260903080236 | 81 | 241 | 1.0 | 2.0 | 0.00 | 0.00 | 0.00 | 69 | 1016.0 |
| 20260903075738 | 81 | 209 | 1.0 | 2.0 | 0.00 | 0.00 | 0.00 | 69 | 1015.0 |
| 20260903075243 | 81 | 220 | 1.0 | 2.0 | 0.00 | 0.00 | 0.00 | 69 | 1016.0 |
| 20260903074736 | 81 | 241 | 1.0 | 2.0 | 0.00 | 0.00 | 0.00 | 69 | 1016.0 |
| 20260903074236 | 81 | 235 | 2.0 | 2.0 | 0.00 | 0.00 | 0.00 | 69 | 1016.0 |
| 20260903073735 | 81 | 227 | 1.0 | 2.0 | 0.00 | 0.00 | 0.00 | 69 | 1016.0 |
| 20260903073236 | 81 | 231 | 2.0 | 2.0 | 0.00 | 0.00 | 0.00 | 69 | 1016.0 |
| 20260903072735 | 81 | 222 | 1.0 | 2.0 | 0.00 | 0.00 | 0.00 | 69 | 1016.0 |
| 20260903072235 | 81 | 237 | 2.0 | 2.0 | 0.00 | 0.00 | 0.00 | 69 | 1016.0 |
| 20260903071736 | 81 | 226 | 2.0 | 2.0 | 0.00 | 0.00 | 0.00 | 69 | 1016.0 |
| 20260903071235 | 81 | 236 | 1.0 | 2.0 | 0.00 | 0.00 | 0.00 | 68 | 1016.0 |
| 20260903070736 | 81 | 221 | 2.0 | 2.0 | 0.00 | 0.00 | 0.00 | 68 | 1016.0 |
| 20260903070236 | 81 | 230 | 1.0 | 2.0 | 0.00 | 0.00 | 0.00 | 68 | 1015.0 |
| 20260903065735 | 82 | 240 | 1.0 | 2.0 | 0.00 | 0.00 | 0.00 | 68 | 1016.0 |
| 20260903065236 | 82 | 208 | 1.0 | 2.0 | 0.00 | 0.00 | 0.00 | 68 | 1016.0 |
| 20260903064737 | 82 | 240 | 2.0 | 2.0 | 0.00 | 0.00 | 0.00 | 68 | 1016.0 |
| 20260903064235 | 81 | 220 | 2.0 | 2.0 | 0.00 | 0.00 | 0.00 | 68 | 1015.0 |
| 20260903063735 | 81 | 224 | 0.0 | 2.0 | 0.00 | 0.00 | 0.00 | 68 | 1016.0 |
| 20260903063236 | 82 | 238 | 1.0 | 2.0 | 0.00 | 0.00 | 0.00 | 68 | 1016.0 |
| 20260903062736 | 82 | 246 | 1.0 | 2.0 | 0.00 | 0.00 | 0.00 | 67 | 1016.0 |
| 20260903062236 | 82 | 250 | 1.0 | 2.0 | 0.00 | 0.00 | 0.00 | 68 | 1016.0 |
| 20260903061735 | 82 | 249 | 2.0 | 2.0 | 0.00 | 0.00 | 0.00 | 68 | 1016.0 |
| 20260903061236 | 82 | 235 | 2.0 | 2.0 | 0.00 | 0.00 | 0.00 | 67 | 1016.0 |
| 20260903060735 | 82 | 252 | 1.0 | 2.0 | 0.00 | 0.00 | 0.00 | 68 | 1016.0 |
| 20260903060238 | 82 | 234 | 2.0 | 2.0 | 0.00 | 0.00 | 0.00 | 68 | 1016.0 |
| 20260903055735 | 82 | 256 | 1.0 | 2.0 | 0.00 | 0.00 | 0.00 | 68 | 1015.0 |
| 20260903055235 | 82 | 255 | 1.0 | 2.0 | 0.00 | 0.00 | 0.00 | 68 | 1016.0 |
| 20260903054736 | 82 | 264 | 1.0 | 2.0 | 0.00 | 0.00 | 0.00 | 68 | 1016.0 |
| 20260903054235 | 82 | 253 | 1.0 | 2.0 | 0.00 | 0.00 | 0.00 | 68 | 1016.0 |
| 20260903053735 | 82 | 245 | 1.0 | 2.0 | 0.00 | 0.00 | 0.00 | 68 | 1016.0 |
| 20260903053236 | 82 | 247 | 1.0 | 2.0 | 0.00 | 0.00 | 0.00 | 68 | 1016.0 |
| 20260903052735 | 82 | 239 | 1.0 | 2.0 | 0.00 | 0.00 | 0.00 | 68 | 1016.0 |
| 20260903052237 | 82 | 232 | 0.0 | 2.0 | 0.00 | 0.00 | 0.00 | 68 | 1015.0 |
| 20260903051736 | 82 | 266 | 1.0 | 2.0 | 0.00 | 0.00 | 0.00 | 68 | 1016.0 |
| 20260903051235 | 83 | 269 | 1.0 | 2.0 | 0.00 | 0.00 | 0.00 | 68 | 1016.0 |
| 20260903050735 | 83 | 255 | 0.0 | 2.0 | 0.00 | 0.00 | 0.00 | 68 | 1016.0 |
| 20260903050235 | 83 | 252 | 1.0 | 2.0 | 0.00 | 0.00 | 0.00 | 67 | 1016.0 |
| 20260903045736 | 83 | 236 | 1.0 | 2.0 | 0.00 | 0.00 | 0.00 | 67 | 1016.0 |
| 20260903045235 | 83 | 251 | 1.0 | 2.0 | 0.00 | 0.00 | 0.00 | 67 | 1015.0 |
| 20260903044735 | 83 | 244 | 1.0 | 2.0 | 0.00 | 0.00 | 0.00 | 67 | 1016.0 |
| 20260903044235 | 83 | 250 | 1.0 | 1.0 | 0.00 | 0.00 | 0.00 | 67 | 1015.0 |
| 20260903043735 | 83 | 263 | 1.0 | 2.0 | 0.00 | 0.00 | 0.00 | 67 | 1015.0 |
| 20260903043236 | 83 | 269 | 1.0 | 2.0 | 0.00 | 0.00 | 0.00 | 66 | 1015.0 |
| 20260903042738 | 84 | 245 | 1.0 | 1.0 | 0.00 | 0.00 | 0.00 | 67 | 1015.0 |
| 20260903042235 | 84 | 262 | 1.0 | 2.0 | 0.00 | 0.00 | 0.00 | 66 | 1015.0 |
| 20260903041735 | 84 | 264 | 2.0 | 2.0 | 0.00 | 0.00 | 0.00 | 66 | 1015.0 |
| 20260903041235 | 84 | 245 | 1.0 | 2.0 | 0.00 | 0.00 | 0.00 | 66 | 1015.0 |
| 20260903040735 | 84 | 251 | 1.0 | 2.0 | 0.00 | 0.00 | 0.00 | 66 | 1015.0 |
| 20260903040236 | 84 | 261 | 1.0 | 2.0 | 0.00 | 0.00 | 0.00 | 65 | 1015.0 |
| 20260903035736 | 84 | 262 | 1.0 | 2.0 | 0.00 | 0.00 | 0.00 | 66 | 1016.0 |
| 20260903035235 | 84 | 247 | 2.0 | 2.0 | 0.00 | 0.00 | 0.00 | 66 | 1015.0 |
| 20260903034735 | 84 | 228 | 1.0 | 2.0 | 0.00 | 0.00 | 0.00 | 65 | 1016.0 |
| 20260903034236 | 84 | 260 | 1.0 | 2.0 | 0.00 | 0.00 | 0.00 | 65 | 1015.0 |
| 20260903033735 | 84 | 269 | 1.0 | 2.0 | 0.00 | 0.00 | 0.00 | 65 | 1015.0 |
| 20260903033235 | 84 | 252 | 1.0 | 2.0 | 0.00 | 0.00 | 0.00 | 65 | 1015.0 |
| 20260903032735 | 85 | 253 | 2.0 | 2.0 | 0.00 | 0.00 | 0.00 | 65 | 1016.0 |
| 20260903032235 | 85 | 257 | 1.0 | 2.0 | 0.00 | 0.00 | 0.00 | 65 | 1015.0 |
| 20260903031737 | 85 | 275 | 1.0 | 2.0 | 0.00 | 0.00 | 0.00 | 64 | 1016.0 |
| 20260903031236 | 85 | 251 | 2.0 | 2.0 | 0.00 | 0.00 | 0.00 | 64 | 1016.0 |
| 20260903030735 | 85 | 273 | 2.0 | 2.0 | 0.00 | 0.00 | 0.00 | 63 | 1016.0 |
| 20260903030235 | 85 | 269 | 1.0 | 2.0 | 0.00 | 0.00 | 0.00 | 63 | 1015.0 |
| 20260903025737 | 86 | 266 | 1.0 | 2.0 | 0.00 | 0.00 | 0.00 | 63 | 1016.0 |
| 20260903025235 | 86 | 264 | 1.0 | 2.0 | 0.00 | 0.00 | 0.00 | 62 | 1015.0 |
| 20260903024736 | 86 | 261 | 1.0 | 2.0 | 0.00 | 0.00 | 0.00 | 62 | 1015.0 |
| 20260903024235 | 86 | 266 | 1.0 | 2.0 | 0.00 | 0.00 | 0.00 | 61 | 1015.0 |
| 20260903023736 | 86 | 271 | 2.0 | 2.0 | 0.00 | 0.00 | 0.00 | 61 | 1016.0 |
| 20260903023235 | 87 | 261 | 2.0 | 2.0 | 0.00 | 0.00 | 0.00 | 60 | 1015.0 |
| 20260903022735 | 87 | 252 | 2.0 | 2.0 | 0.00 | 0.00 | 0.00 | 60 | 1015.0 |
| 20260903022236 | 87 | 273 | 2.0 | 2.0 | 0.00 | 0.00 | 0.00 | 59 | 1016.0 |
| 20260903021736 | 87 | 267 | 1.0 | 2.0 | 0.00 | 0.00 | 0.00 | 58 | 1016.0 |
| 20260903021235 | 88 | 266 | 2.0 | 2.0 | 0.00 | 0.00 | 0.00 | 58 | 1015.0 |
| 20260903020736 | 88 | 261 | 2.0 | 2.0 | 0.00 | 0.00 | 0.00 | 57 | 1015.0 |
| 20260903020237 | 88 | 276 | 0.0 | 2.0 | 0.00 | 0.00 | 0.00 | 56 | 1015.0 |
| 20260903015735 | 88 | 261 | 1.0 | 2.0 | 0.00 | 0.00 | 0.00 | 56 | 1015.0 |
| 20260903015236 | 88 | 180 | 2.0 | 3.0 | 0.00 | 0.00 | 0.00 | 56 | 1015.0 |
| 20260903014736 | 89 | 250 | 2.0 | 2.0 | 0.00 | 0.00 | 0.00 | 55 | 1015.0 |
| 20260903014236 | 89 | 245 | 1.0 | 2.0 | 0.00 | 0.00 | 0.00 | 54 | 1015.0 |
| 20260903013736 | 89 | 239 | 2.0 | 2.0 | 0.00 | 0.00 | 0.00 | 54 | 1015.0 |
| 20260903013235 | 89 | 251 | 1.0 | 2.0 | 0.00 | 0.00 | 0.00 | 54 | 1015.0 |
| 20260903012735 | 89 | 236 | 2.0 | 2.0 | 0.00 | 0.00 | 0.00 | 53 | 1015.0 |
| 20260903012235 | 90 | 267 | 2.0 | 2.0 | 0.00 | 0.00 | 0.00 | 52 | 1015.0 |
| 20260903011736 | 90 | 239 | 2.0 | 2.0 | 0.00 | 0.00 | 0.00 | 52 | 1015.0 |
| 20260903011236 | 90 | 227 | 2.0 | 2.0 | 0.00 | 0.00 | 0.00 | 52 | 1014.0 |
| 20260903010735 | 90 | 241 | 2.0 | 2.0 | 0.00 | 0.00 | 0.00 | 51 | 1015.0 |
| 20260903010236 | 91 | 255 | 1.0 | 2.0 | 0.00 | 0.00 | 0.00 | 50 | 1015.0 |
| 20260903005736 | 91 | 250 | 1.0 | 2.0 | 0.00 | 0.00 | 0.00 | 49 | 1015.0 |
| 20260903005235 | 92 | 264 | 2.0 | 2.0 | 0.00 | 0.00 | 0.00 | 48 | 1015.0 |
| 20260903004735 | 92 | 261 | 2.0 | 2.0 | 0.00 | 0.00 | 0.00 | 47 | 1015.0 |
| 20260903004236 | 93 | 252 | 2.0 | 2.0 | 0.00 | 0.00 | 0.00 | 46 | 1015.0 |
| 20260903003735 | 93 | 260 | 1.0 | 2.0 | 0.00 | 0.00 | 0.00 | 45 | 1014.0 |
| 20260903003236 | 94 | 262 | 1.0 | 2.0 | 0.00 | 0.00 | 0.00 | 45 | 1014.0 |
| 20260903002735 | 94 | 254 | 2.0 | 2.0 | 0.00 | 0.00 | 0.00 | 44 | 1014.0 |
| 20260903002236 | 95 | 263 | 2.0 | 2.0 | 0.00 | 0.00 | 0.00 | 43 | 1014.0 |
| 20260903001735 | 95 | 252 | 2.0 | 2.0 | 0.00 | 0.00 | 0.00 | 43 | 1014.0 |
| 20260903001236 | 96 | 262 | 1.0 | 2.0 | 0.00 | 0.00 | 0.00 | 42 | 1014.0 |
| 20260903000736 | 96 | 260 | 2.0 | 2.0 | 0.00 | 0.00 | 0.00 | 41 | 1014.0 |
| 20260903000235 | 96 | 252 | 2.0 | 2.0 | 0.00 | 0.00 | 0.00 | 41 | 1014.0 |
| 20260902235736 | 97 | 247 | 2.0 | 2.0 | 0.00 | 0.00 | 0.00 | 41 | 1014.0 |
| 20260902235236 | 96 | 248 | 1.0 | 2.0 | 0.00 | 0.00 | 0.00 | 40 | 1014.0 |
| 20260902234736 | 97 | 241 | 2.0 | 2.0 | 0.00 | 0.00 | 0.00 | 39 | 1014.0 |
| 20260902234236 | 97 | 228 | 0.0 | 3.0 | 0.00 | 0.00 | 0.00 | 39 | 1014.0 |
| 20260902233735 | 97 | 244 | 2.0 | 3.0 | 0.00 | 0.00 | 0.00 | 39 | 1014.0 |
| 20260902233235 | 97 | 231 | 2.0 | 3.0 | 0.00 | 0.00 | 0.00 | 38 | 1014.0 |
| 20260902232735 | 98 | 227 | 2.0 | 3.0 | 0.00 | 0.00 | 0.00 | 37 | 1014.0 |
| 20260902232235 | 98 | 236 | 2.0 | 3.0 | 0.00 | 0.00 | 0.00 | 38 | 1014.0 |
| 20260902231735 | 98 | 224 | 2.0 | 3.0 | 0.00 | 0.00 | 0.00 | 37 | 1014.0 |
| 20260902231237 | 97 | 236 | 2.0 | 2.0 | 0.00 | 0.00 | 0.00 | 38 | 1014.0 |
| 20260902230735 | 97 | 246 | 1.0 | 3.0 | 0.00 | 0.00 | 0.00 | 38 | 1014.0 |
| 20260902230236 | 97 | 236 | 2.0 | 2.0 | 0.00 | 0.00 | 0.00 | 38 | 1014.0 |
| 20260902225735 | 98 | 245 | 3.0 | 3.0 | 0.00 | 0.00 | 0.00 | 37 | 1014.0 |
| 20260902225235 | 98 | 162 | 2.0 | 3.0 | 0.00 | 0.00 | 0.00 | 38 | 1014.0 |
| 20260902224735 | 98 | 235 | 2.0 | 2.0 | 0.00 | 0.00 | 0.00 | 36 | 1014.0 |
| 20260902224235 | 98 | 237 | 1.0 | 2.0 | 0.00 | 0.00 | 0.00 | 37 | 1014.0 |
| 20260902223735 | 99 | 175 | 3.0 | 3.0 | 0.00 | 0.00 | 0.00 | 36 | 1014.0 |
| 20260902223236 | 99 | 275 | 3.0 | 5.0 | 0.00 | 0.00 | 0.00 | 37 | 1014.0 |
| 20260902222736 | 99 | 252 | 2.0 | 2.0 | 0.00 | 0.00 | 0.00 | 37 | 1014.0 |
| 20260902222235 | 100 | 160 | 4.0 | 4.0 | 0.00 | 0.00 | 0.00 | 35 | 1014.0 |
| 20260902221735 | 100 | 266 | 1.0 | 3.0 | 0.00 | 0.00 | 0.00 | 35 | 1014.0 |
| 20260902221235 | 100 | 230 | 1.0 | 3.0 | 0.00 | 0.00 | 0.00 | 35 | 1014.0 |
| 20260902220735 | 99 | 243 | 1.0 | 3.0 | 0.00 | 0.00 | 0.00 | 36 | 1014.0 |
| 20260902220235 | 99 | 234 | 2.0 | 3.0 | 0.00 | 0.00 | 0.00 | 36 | 1014.0 |
| 20260902215736 | 100 | 269 | 0.0 | 2.0 | 0.00 | 0.00 | 0.00 | 35 | 1014.0 |
| 20260902215235 | 99 | 231 | 2.0 | 3.0 | 0.00 | 0.00 | 0.00 | 36 | 1014.0 |
| 20260902214735 | 99 | 237 | 2.0 | 2.0 | 0.00 | 0.00 | 0.00 | 36 | 1015.0 |
| 20260902214235 | 99 | 225 | 4.0 | 4.0 | 0.00 | 0.00 | 0.00 | 36 | 1014.0 |
| 20260902213736 | 99 | 239 | 5.0 | 5.0 | 0.00 | 0.00 | 0.00 | 38 | 1014.0 |
| 20260902213235 | 98 | 198 | 2.0 | 4.0 | 0.00 | 0.00 | 0.00 | 37 | 1015.0 |
| 20260902212735 | 99 | 219 | 2.0 | 5.0 | 0.00 | 0.00 | 0.00 | 37 | 1015.0 |
| 20260902212236 | 99 | 170 | 0.0 | 4.0 | 0.00 | 0.00 | 0.00 | 36 | 1015.0 |
| 20260902211736 | 98 | 253 | 2.0 | 5.0 | 0.00 | 0.00 | 0.00 | 37 | 1015.0 |
| 20260902211235 | 98 | 241 | 3.0 | 4.0 | 0.00 | 0.00 | 0.00 | 37 | 1015.0 |
| 20260902210736 | 98 | 237 | 1.0 | 4.0 | 0.00 | 0.00 | 0.00 | 39 | 1015.0 |
| 20260902210235 | 98 | 256 | 2.0 | 4.0 | 0.00 | 0.00 | 0.00 | 38 | 1015.0 |
| 20260902205735 | 98 | 227 | 3.0 | 4.0 | 0.00 | 0.00 | 0.00 | 38 | 1015.0 |
| 20260902205235 | 98 | 223 | 2.0 | 3.0 | 0.00 | 0.00 | 0.00 | 38 | 1015.0 |
| 20260902204735 | 98 | 273 | 3.0 | 3.0 | 0.00 | 0.00 | 0.00 | 36 | 1015.0 |
| 20260902204238 | 99 | 233 | 3.0 | 3.0 | 0.00 | 0.00 | 0.00 | 36 | 1015.0 |
| 20260902203735 | 99 | 234 | 2.0 | 4.0 | 0.00 | 0.00 | 0.00 | 36 | 1015.0 |
| 20260902203235 | 98 | 201 | 2.0 | 6.0 | 0.00 | 0.00 | 0.00 | 36 | 1015.0 |
| 20260902202736 | 99 | 264 | 2.0 | 3.0 | 0.00 | 0.00 | 0.00 | 37 | 1015.0 |
| 20260902202235 | 99 | 232 | 2.0 | 4.0 | 0.00 | 0.00 | 0.00 | 37 | 1015.0 |
| 20260902201736 | 98 | 237 | 3.0 | 5.0 | 0.00 | 0.00 | 0.00 | 38 | 1015.0 |
| 20260902201235 | 98 | 261 | 5.0 | 5.0 | 0.00 | 0.00 | 0.00 | 38 | 1016.0 |
| 20260902200735 | 98 | 277 | 6.0 | 6.0 | 0.00 | 0.00 | 0.00 | 39 | 1016.0 |
| 20260902200237 | 97 | 235 | 3.0 | 7.0 | 0.00 | 0.00 | 0.00 | 39 | 1016.0 |
| 20260902195739 | 98 | 267 | 4.0 | 6.0 | 0.00 | 0.00 | 0.00 | 39 | 1016.0 |
| 20260902195236 | 98 | 172 | 3.0 | 3.0 | 0.00 | 0.00 | 0.00 | 39 | 1016.0 |
| 20260902194735 | 98 | 262 | 2.0 | 3.0 | 0.00 | 0.00 | 0.00 | 39 | 1016.0 |
| 20260902194235 | 98 | 249 | 4.0 | 4.0 | 0.00 | 0.00 | 0.00 | 39 | 1016.0 |
| 20260902193736 | 98 | 244 | 2.0 | 3.0 | 0.00 | 0.00 | 0.00 | 39 | 1016.0 |
| 20260902193235 | 98 | 207 | 2.0 | 6.0 | 0.00 | 0.00 | 0.00 | 39 | 1016.0 |
| 20260902192735 | 98 | 166 | 2.0 | 3.0 | 0.00 | 0.00 | 0.00 | 39 | 1016.0 |
| 20260902192236 | 98 | 244 | 3.0 | 6.0 | 0.00 | 0.00 | 0.00 | 38 | 1016.0 |
| 20260902191744 | 97 | 116 | 1.0 | 3.0 | 0.00 | 0.00 | 0.00 | 42 | 1016.0 |
| 20260902191235 | 97 | 256 | 2.0 | 3.0 | 0.00 | 0.00 | 0.00 | 42 | 1016.0 |
| 20260902190735 | 97 | 271 | 6.0 | 6.0 | 0.00 | 0.00 | 0.00 | 42 | 1016.0 |
| 20260902190235 | 96 | 264 | 4.0 | 4.0 | 0.00 | 0.00 | 0.00 | 42 | 1016.0 |
| 20260902185735 | 96 | 265 | 3.0 | 8.0 | 0.00 | 0.00 | 0.00 | 41 | 1016.0 |
| 20260902185235 | 96 | 242 | 3.0 | 4.0 | 0.00 | 0.00 | 0.00 | 42 | 1016.0 |
| 20260902184735 | 97 | 248 | 5.0 | 5.0 | 0.00 | 0.00 | 0.00 | 41 | 1016.0 |
| 20260902184236 | 96 | 254 | 2.0 | 5.0 | 0.00 | 0.00 | 0.00 | 41 | 1016.0 |
| 20260902183250 | 96 | 245 | 7.0 | 7.0 | 0.00 | 0.00 | 0.00 | 45 | 1017.0 |
| 20260902182735 | 96 | 246 | 3.0 | 6.0 | 0.00 | 0.00 | 0.00 | 44 | 1016.0 |
| 20260902182235 | 96 | 272 | 1.0 | 4.0 | 0.00 | 0.00 | 0.00 | 44 | 1017.0 |
| 20260902181735 | 95 | 221 | 2.0 | 4.0 | 0.00 | 0.00 | 0.00 | 44 | 1017.0 |
| 20260902181235 | 95 | 239 | 2.0 | 5.0 | 0.00 | 0.00 | 0.00 | 45 | 1017.0 |
| 20260902180738 | 95 | 236 | 2.0 | 7.0 | 0.00 | 0.00 | 0.00 | 45 | 1017.0 |
| 20260902180236 | 95 | 257 | 3.0 | 7.0 | 0.00 | 0.00 | 0.00 | 45 | 1017.0 |
| 20260902175736 | 95 | 256 | 2.0 | 4.0 | 0.00 | 0.00 | 0.00 | 46 | 1017.0 |
| 20260902175237 | 95 | 252 | 3.0 | 4.0 | 0.00 | 0.00 | 0.00 | 47 | 1017.0 |
| 20260902174736 | 94 | 274 | 3.0 | 4.0 | 0.00 | 0.00 | 0.00 | 47 | 1017.0 |